Tracking 25734 objects as of 27-May-2022
HD Live streaming from Space Station
objects crossing your sky now

KL-BETA B

Track KL-BETA B now!
10-day predictions


NORAD ID: 49060
Int'l Code: 2021-070B
Perigee: 908.3 km
Apogee: 919.0 km
Inclination: 89.0 °
Period: 103.1 minutes
Semi major axis: 7284 km
RCS: Unknown
Launch date: August 4, 2021
Source: People's Republic of China (PRC)
Launch site: Taiyaun Space Center, China (TSC)
aabbcc
Your satellite tracking list
Your tracking list is empty




NASA's NSSDC Master Catalog

Two Line Element Set (TLE):
1 49060U 21070B   22146.87622285  .00000134  00000-0  87533-4 0  9992
2 49060  89.0036  21.0053 0007294  66.9224 293.2720 13.96335869 41248
Source of the keplerian elements: AFSPC